Back to catalog

AAU CUBESAT

AliveScienceSSO
NORAD 27846·PAYLOAD·🇩🇰 Denmark

Launched Jun 30, 2003 from Plesetsk Cosmodrome

Loading…

Next Passes (next 24 hours)

TLE

FreshSource: Space-Track

Epoch: Sep 14, 2026, 10:54 UTC

1 27846U 03031G   26257.45474373  .00000144  00000-0  81742-4 0  9998
2 27846  98.6881 264.8922 0008038 262.9592  97.0672 14.23998093204393

Track AAU CUBESAT in real time with AllMySat

Download on the App Store